Location: Newark
(39.8850°N, 17.2769°E)
Time: 15:54:17
(UTC+00:00)

Hubble Space Telescope - Visible Passes

Search period start: 12 November 2019 00:00
Search period end: 22 November 2019 00:00
Orbit: 536 x 540 km, 28.5° (Epoch: 12 November)

Date Brightness Start Highest point End Pass type
(mag) Time Alt. Az. Time Alt. Az. Time Alt. Az.
19 Nov 3.6 18:08:27 10° SSW 18:08:41 11° SSW 18:08:41 11° SSW visible
20 Nov 3.3 17:57:36 10° SSW 17:58:42 14° SSW 17:58:42 14° SSW visible
21 Nov 3.3 16:08:00 10° S 16:09:00 11° SSE 16:10:01 10° SSE visible
21 Nov 3.1 17:46:49 10° SW 17:48:44 16° S 17:48:44 16° S visible
